Hlavní strana
METAR-TAF:

METAR-TAF

Letiště :

Plantation Airpark

Sylvania, Georgie, Spojené státy americké

zeměpisná šířka: 32-38-43N, zeměpisná délka: 081-35-47W, výška: 57 m

Aktuální stav počasí

Zpráva byla vytvořena před 34 minutami, v 23:35 UTC
Západoseverozápadní vítr 11 kt s nárazy do 16 kt
Teplota 10°C
Vlhkost vzduchu 57%
Tlak 1011 hPa
Viditelnost: 16.1 km
Zataženo ve výšce 4100 ft

METAR: KJYL 302335Z AUTO 29011G16KT 10SM OVC041 10/02 A2985 RMK AO2 T00950024

Čas: 19:09 (00:09 UTC)


TAF: chybějící

Stav a předpovědi počasí z více než 4 000 letišť (zprávy METAR a TAF).

Červené a žluté tečky na mapě představují dostupné meteorologické stanice.

Když kurzor umístíte na tečku, zobrazí se název stanice.

Pak kliknutím zobrazíte stav a předpověď počasí.

Chcete-li změnit mapu, kliknutím na zelené tlačítko se znaménkem +mapu přiblížíte, kliknutím na zelené tlačítko se znaménkem – mapu oddálíte a kliknutím na zelené šipky přejdete na sousední mapy.


METAR-TAF: